Location: Bourg-d�Oueil
(42.8588°N, 0.4991°E)
Time: 20:40:17
(UTC+00:00)

Meteor 2-10 - Pass Details

Date: 16 June 2021
Orbit: 738 x 868 km, 81.2° (Epoch: 23 July)

Event Time Altitude Azimuth Distance (km) Brightness Sun altitude
Rises 20:34:48 0° 347° (NNW) 3,183 8.3 -8.8°
Reaches altitude 10° 20:37:07 10° 346° (NNW) 2,259 7.4 -9.1°
Maximum altitude 20:42:09 71° 263° (W) 792 4.2 -9.8°
Drops below altitude 10° 20:47:15 10° 180° (S) 2,289 6.0 -10.4°
Enters shadow 20:48:24 - 179° (S) 2,745 6.4 -10.6°
